Location: En la Gottaz
(46.7000°N, 7.1000°E)
Time: 13:12:49
(UTC+00:00)

Daily predictions for brighter satellites

Satellite Brightness Start Highest point End
(mag) Time Altitude Azimuth Time Altitude Azimuth Time Altitude Azimuth
MetOp-A 4.2 18:52:50 10° SSE 18:58:10 76° ENE 19:03:32 10° N
CZ-4C R/B 4.1 18:53:28 10° W 18:58:10 32° NNW 19:03:44 10° NNE
Cosmos 2227 Rocket 3.4 18:54:28 10° SE 18:58:23 20° E 19:02:19 10° NE
ATLAS 2AS CENTAUR R/B 3.4 18:52:16 10° SW 19:00:11 72° NW 19:07:58 10° NE
BREEZE-M DEB (TANK) 3.5 18:57:20 10° WSW 19:00:11 89° SE 19:07:07 10° ENE
Cosmos 1092 Rocket 4.0 18:55:00 10° N 19:01:17 84° E 19:07:28 10° S
Cosmos 2058 3.0 18:59:45 10° N 19:03:55 64° E 19:08:02 10° SSE
Cosmos 2297 Rocket 3.0 19:00:08 10° SSE 19:04:51 28° ESE 19:09:35 10° NE
FALCON 9 DEB 4.3 19:03:34 10° S 19:05:48 19° SE 19:08:02 10° E
Cosmos 1633 4.2 19:03:51 10° NNE 19:06:28 19° ENE 19:09:03 10° ESE
Cosmos 405 3.4 19:03:28 10° SSW 19:06:54 65° WNW 19:10:23 10° N
Lacrosse 5 rocket 3.7 19:03:59 10° NW 19:07:09 21° N 19:10:26 10° NE
FALCON 9 DEB 4.0 19:07:54 10° SSW 19:10:25 24° SE 19:12:57 10° E
Resurs 01 Rocket 2.8 19:09:00 10° SE 19:12:46 28° ENE 19:16:33 10° N
Cosmos 2219 3.9 19:09:11 10° SSE 19:13:58 30° ESE 19:18:46 10° NE
Genesis I 4.3 19:10:27 10° NNW 19:14:07 33° NE 19:17:40 11° ESE
Resurs 1-3 4.0 19:10:13 10° SE 19:14:23 45° ENE 19:18:35 10° N
BREEZE-M DEB (TANK) 3.5 19:11:43 10° WSW 19:15:19 82° NNW 19:27:32 10° ENE
Cosmos 2333 Rocket 3.3 19:10:58 10° NW 19:16:26 45° WSW 19:21:49 10° S
SJ-6B 2.7 19:14:35 10° SSE 19:18:19 86° ENE 19:22:07 10° NNW
Cosmos 1689 Rocket 4.4 19:16:11 10° N 19:18:40 28° WNW 19:21:08 10° SW
CZ-2C R/B 3.9 19:15:55 10° N 19:20:51 45° WNW 19:25:51 10° SW
Cosmos 2084 Rocket 4.3 19:18:45 10° S 19:22:00 25° ESE 19:25:19 10° ENE
FALCON 9 DEB 3.5 19:19:40 10° SSW 19:22:26 32° SE 19:25:12 10° ENE
Cosmos 389 Rocket 2.8 19:19:19 10° S 19:22:42 46° E 19:26:09 10° NNE
ERS-2 3.0 19:19:37 10° N 19:23:12 53° WNW 19:26:44 10° SSW
Ariane Rocket 3.0 19:19:45 10° SSE 19:24:46 70° ENE 19:29:48 10° N
Cosmos 614 Rocket 3.9 19:21:07 10° SSW 19:26:13 74° ESE 19:31:20 10° NNE
Cosmos 2251 Rocket 3.7 19:22:38 10° SSW 19:28:00 81° WNW 19:33:22 10° NNE
FALCON 9 DEB 4.2 19:25:43 10° W 19:29:03 47° NNW 19:32:23 10° NE
ATLAS 3B R/B 3.3 19:24:03 10° NW 19:30:57 61° WSW 19:38:09 10° SSE
Cosmos 2279 Rocket 4.0 19:26:50 10° S 19:32:55 66° E 19:39:04 10° NNE
MOS 1 4.3 19:32:28 10° SSE 19:38:07 89° WSW 19:43:49 10° NNW
Cosmos 1980 3.7 19:33:16 10° NNW 19:38:59 84° ENE 19:44:12 13° SSE
Cosmos-2242 3.8 19:35:48 13° SSE 19:39:06 31° E 19:42:53 10° NNE
Cosmos 2026 Rocket 4.4 19:33:17 10° NNW 19:39:19 65° W 19:45:22 10° S
SL-16 R/B 3.2 19:34:20 10° NNW 19:39:29 34° NE 19:43:26 16° ESE
USA 215 3.9 19:34:31 10° E 19:40:44 49° NNE 19:46:59 10° NW
Cosmos 2151 3.4 19:36:52 10° N 19:41:02 46° ENE 19:44:09 16° SE
FALCON 9 DEB 3.1 19:41:17 10° SW 19:44:12 42° SE 19:46:41 13° ENE
SPOT 3 Rocket 3.7 19:40:39 14° SE 19:45:03 56° ENE 19:50:07 10° N
Cosmos 1455 4.1 19:43:39 10° SW 19:47:01 31° WNW 19:50:24 10° N
COSMOS 2455 3.6 19:42:59 10° SSE 19:48:02 29° ESE 19:53:07 10° NE
SL-4 R/B 2.4 19:46:54 10° SW 19:51:06 50° SE 19:55:36 10° ENE
Cosmos 2219 Rocket 4.1 19:48:35 10° NW 19:53:18 27° WSW 19:57:58 10° SSW
USA 186 4.3 19:51:01 10° SW 19:53:33 20° W 19:55:59 10° NW
BREEZE M DEB (TANK) 4.3 19:51:17 10° SSW 19:54:36 34° SE 20:03:05 10° ENE
ERS-1 Rocket 4.4 19:53:54 17° E 19:56:14 23° ENE 20:00:06 10° N
IGS 5A 3.5 19:54:20 20° SSE 19:57:03 60° ENE 20:01:10 10° N
Cosmos 1076 Rocket 3.9 19:52:57 10° NNW 19:57:16 66° W 20:01:31 10° S
COSMOS 2428 4.4 19:52:41 10° NW 19:57:37 30° WSW 20:02:32 10° SSW
Cosmos 2266 Rocket 4.1 19:51:33 10° N 19:57:51 59° ENE 20:02:35 18° SSE
OBJECT-B 2.8 19:55:27 10° SSW 19:58:15 27° W 20:01:04 10° NW
Landsat 7 4.0 19:55:13 19° SE 19:58:27 58° ENE 20:03:09 10° N
ATLAS 5 CENTAUR R/B 3.4 19:58:17 10° W 19:59:24 13° SW 20:00:48 10° SSW
Cosmos 2292 Rocket 4.4 19:57:22 10° NNW 20:03:50 73° W 20:08:33 10° S
Cosmos 2221 4.4 20:05:05 14° ENE 20:05:05 14° ENE 20:06:55 10° NE
Cosmos 2344 4.0 19:58:22 10° SW 20:05:45 65° NW 20:13:48 10° NE
ARIANE 5 R/B 3.5 20:04:04 24° ESE 20:05:50 33° ENE 20:09:46 10° N
USA 245 3.7 20:05:50 30° ESE 20:06:38 34° ENE 20:09:26 10° N
Cosmos 407 Rocket 3.4 20:01:39 10° SSW 20:06:47 89° ESE 20:12:01 10° NNE
IRIDIUM 104 4.5 20:05:36 10° S 20:10:48 75° W 20:16:03 10° N
Cosmos 1023 Rocket 4.4 20:06:46 10° SSW 20:11:51 90° ESE 20:16:59 10° NNE
MetOp-B 4.1 20:09:17 22° SSE 20:12:51 74° ENE 20:18:13 10° N
Meteor 2-3 Rocket 3.7 20:08:05 10° N 20:13:53 80° ENE 20:17:47 21° SSE
Cosmos 44 Rocket 3.8 20:13:41 10° S 20:18:24 41° ESE 20:23:16 10° NE
Meteor 1-27 4.3 20:14:09 16° S 20:18:39 59° E 20:24:23 10° NNE
Cosmos 1140 Rocket 3.5 20:14:57 10° SSW 20:20:04 81° WNW 20:25:14 10° NNE
Cosmos 1812 Rocket 4.3 20:17:32 10° SSW 20:21:53 54° WNW 20:26:17 10° N
Cosmos 1954 Rocket 3.9 20:19:29 12° S 20:24:10 60° ESE 20:29:16 10° NNE
CZ-2C R/B 3.5 20:20:24 10° NNE 20:24:51 73° ESE 20:27:43 22° S
Cosmos 2237 Rocket 3.0 20:21:18 10° NW 20:26:40 46° WSW 20:30:47 16° S
Timation 2 Rocket 4.0 20:20:29 10° SSW 20:27:05 89° ESE 20:33:24 10° NNE
Cosmos 2263 Rocket 3.7 20:34:38 18° E 20:34:38 18° E 20:37:07 10° NE
Spot 2 Rocket 3.5 20:32:07 35° SE 20:34:14 69° ENE 20:39:17 10° N
CARTOSAT-1 3.8 20:33:28 42° ESE 20:34:31 54° ENE 20:38:46 10° N
BREEZE M DEB (TANK) 2.6 20:27:38 10° WSW 20:35:07 73° NNW 20:36:34 29° ENE
Cosmos 1766 Rocket 3.4 20:30:47 10° N 20:35:08 71° E 20:36:22 45° SSE
Cosmos 1633 4.2 20:38:07 10° NNW 20:41:17 30° W 20:43:20 17° SW
FALCON 9 DEB 3.1 20:38:16 10° WSW 20:41:19 65° NNW 20:41:38 59° NNE
Cosmos 2227 Rocket 2.4 20:36:12 10° SW 20:41:50 70° WNW 20:47:31 10° NNE
Cosmos 2082 3.6 20:37:15 15° SSW 20:41:57 66° ESE 20:47:32 10° NNE
Okean 3 Rocket 3.5 20:39:45 10° N 20:44:18 88° ENE 20:45:39 46° S
FALCON 9 DEB 3.6 20:43:00 10° WSW 20:45:58 51° NNW 20:46:28 45° NNE
Lacrosse 5 rocket 3.3 20:43:49 10° NW 20:47:26 26° NNE 20:49:58 16° ENE
Cosmos 2297 Rocket 3.1 20:43:08 10° SW 20:48:36 50° WNW 20:54:08 10° NNE
Cosmos 1869 3.2 20:47:58 51° SSW 20:48:56 87° WNW 20:52:53 10° N
Resurs 01 Rocket 3.0 20:46:10 16° SSW 20:49:08 34° W 20:53:13 10° NNW
Cosmos 468 Rocket 4.0 20:45:18 10° NNW 20:50:26 67° ENE 20:51:46 47° SE
Meteor 1-4 Rocket 2.3 20:50:30 84° SW 20:50:34 86° W 20:54:08 10° N
Cosmos 841 Rocket 4.3 20:50:21 10° N 20:55:10 37° ENE 20:56:15 33° E
Cosmos 2219 4.2 20:52:29 10° SW 20:57:53 47° WNW 21:03:20 10° NNE
FALCON 9 DEB 4.0 20:55:10 10° W 20:58:04 42° NNW 20:58:12 42° NNW
Cosmos 1763 Rocket 3.3 20:58:11 10° NNW 21:03:17 82° ENE 21:04:17 58° SE
Terra 1.9 21:03:52 54° ESE 21:04:26 58° ENE 21:09:07 10° N
BREEZE-M DEB (TANK) 4.3 21:08:08 10° W 21:08:46 16° W 21:08:46 16° W
Cosmos 540 Rocket 3.7 21:06:01 10° NNW 21:11:03 53° ENE 21:11:41 50° E
Cosmos 921 Rocket 4.0 21:08:23 10° N 21:12:21 35° ENE 21:12:21 35° ENE
SPOT 5 2.7 21:14:08 67° S 21:14:45 82° WSW 21:19:36 10° NNW
NOSS 3-1 (C) 4.0 21:09:34 10° NW 21:17:02 84° NE 21:20:23 42° SE
Meteor 2-2 Rocket 4.1 21:15:41 52° S 21:17:06 77° E 21:22:49 10° NNE
Cosmos 1842 Rocket 3.5 21:20:26 82° ENE 21:20:26 82° ENE 21:24:50 10° N
USA 215 3.2 21:21:35 48° SE 21:23:33 77° SW 21:30:08 10° NW
SL-16 R/B 2.9 21:18:21 10° NW 21:23:45 45° WSW 21:25:19 36° SSW
SL-08 ROCKET BODY 4.3 21:24:27 10° N 21:30:33 82° E 21:31:36 62° SSE
SL-4 R/B 2.8 21:26:21 10° W 21:30:48 58° NNW 21:33:33 24° NE
COSMOS 2455 3.4 21:27:43 10° SW 21:33:38 57° NW 21:39:35 10° NNE
ERS-1 Rocket 3.4 21:33:52 48° SW 21:34:41 54° W 21:39:37 10° NNW
Cosmos 1408 Rocket 4.0 21:30:35 10° NNW 21:34:48 52° W 21:34:52 52° W
Cosmos 2227 4.3 21:40:44 57° E 21:40:44 57° E 21:45:57 10° NNE
Cosmos 2221 2.9 21:41:54 58° WNW 21:41:54 58° WNW 21:45:59 10° N
Cosmos 1862 4.2 21:38:12 10° NNW 21:41:30 46° WNW 21:41:30 46° WNW
ARIANE 5 R/B 4.1 21:41:36 26° WSW 21:42:18 27° W 21:46:03 10° NW
Sich 1 4.1 21:38:25 10° N 21:41:28 35° NE 21:41:28 35° NE
Cosmos 1805 Rocket 4.3 21:38:34 10° N 21:41:58 46° NNE 21:41:58 46° NNE
Cosmos 1943 3.0 21:44:10 10° NNW 21:49:49 77° ENE 21:50:06 75° E
Cosmos 1745 Rocket 3.8 21:46:19 10° N 21:52:39 84° E 21:53:25 70° SSE
Cosmos 1570 Rocket 3.9 21:48:03 10° NNW 21:53:15 78° NE 21:53:15 78° NE
SeaSat 1 3.9 21:48:49 10° NE 21:51:18 26° ENE 21:51:18 26° ENE
Cosmos 1743 Rocket 4.1 21:49:23 10° NNW 21:53:02 54° NW 21:53:02 54° NW
Cosmos 1709 Rocket 4.1 21:51:44 10° N 21:57:49 55° ENE 21:58:09 55° E
Cosmos 1606 4.4 22:06:55 32° N 22:06:55 32° N 22:09:07 10° N
S3M 3.9 22:05:25 70° SSW 22:06:15 87° W 22:12:41 10° N
BREEZE-M DEB (TANK) 4.5 22:01:53 10° WNW 22:06:19 32° W 22:06:19 32° W
Cosmos 2263 Rocket 2.2 22:16:15 68° W 22:16:37 70° WNW 22:22:12 10° NNE
Aureole 1 Rocket 4.2 22:17:35 44° W 22:18:27 48° WNW 22:22:52 10° N
USA 229 DEB 3.9 22:19:02 10° NW 22:26:16 62° WSW 22:27:01 59° SSW
USA 229 3.9 22:19:07 10° NW 22:26:22 63° WSW 22:27:08 60° SSW
Lacrosse 5 rocket 2.7 22:22:46 10° NW 22:25:35 39° NW 22:25:35 39° NW
Cosmos 1844 Rocket 4.1 22:30:56 27° ENE 22:30:56 27° ENE 22:33:55 10° NE
Cosmos 2208 Rocket 4.5 22:28:12 10° NNW 22:32:47 55° WNW 22:32:47 55° WNW
ALOS 2 3.9 22:35:38 37° NNE 22:35:38 37° NNE 22:38:33 10° N
Cosmos 1603 4.4 22:33:04 10° NW 22:37:52 43° W 22:37:52 43° W
Terra 3.9 22:42:44 18° W 22:42:44 18° W 22:45:48 10° NW
NOSS 3-1 (A) 4.3 22:36:50 10° NW 22:44:16 56° WSW 22:45:03 54° SW
Meteor 1-14 Rocket 4.4 22:59:06 10° NNW 23:04:37 76° NNW 23:04:37 76° NNW
SL-4 R/B 3.9 23:06:33 10° WNW 23:09:10 30° NW 23:09:10 30° NW
NOSS 2-2 (C) 4.4 23:09:36 10° NW 23:14:35 79° NNW 23:14:35 79° NNW
Cosmos 2184 Rocket 4.0 23:08:51 10° N 23:14:58 78° NE 23:14:58 78° NE
NOSS 2-2 (E) 4.5 23:10:38 10° NW 23:15:39 75° WNW 23:15:39 75° WNW
Cosmos 2315 Rocket 4.5 23:16:01 50° W 23:16:25 51° WNW 23:22:37 10° N
Cosmos 2278 Rocket 4.3 23:19:29 15° E 23:19:29 15° E 23:21:25 10° ENE
ATLAS 5 CENTAUR R/B 3.5 23:19:44 10° NNW 23:24:42 36° NE 23:27:06 26° E
SeaSat 1 3.6 23:26:25 10° NNE 23:30:54 36° NW 23:31:05 36° NW
Nimbus 7 Rocket 4.5 23:34:21 10° NNE 23:39:53 69° NW 23:39:53 69° NW
Cosmos 1844 3.9 23:41:40 68° N 23:41:40 68° N 23:46:40 10° NNE
Cosmos 2074 Rocket 4.1 23:35:23 10° NNW 23:41:12 64° WNW 23:41:12 64° WNW
USA 281 3.2 23:43:08 66° E 23:43:49 71° ENE 23:50:23 10° NNW
COSMOS 2406 4.2 23:38:41 10° NNW 23:44:00 39° NE 23:44:54 37° ENE
Gbstr 26 Del rocket 4.4 23:53:47 47° E 23:53:47 47° E 23:57:45 10° ENE
